Location: Trinity Park
(33.0879°N, 96.5419°W)
Time: 01:00:30
(UTC+00:00)

Daily predictions for brighter satellites

Satellite Brightness Start Highest point End
(mag) Time Altitude Azimuth Time Altitude Azimuth Time Altitude Azimuth
Delta 168 4.4 02:01:35 10° WSW 02:06:22 40° S 02:13:18 10° ESE
Centaur AC-119 4.3 02:02:50 10° SSW 02:06:38 31° SE 02:16:09 10° E
USA 234 3.4 02:02:22 10° NE 02:08:43 53° SE 02:15:03 10° SSW
DELTA 2 R/B (1) 4.1 02:05:11 10° WNW 02:10:35 50° SSW 02:15:58 10° SE
OAO 1 Rocket 4.5 02:07:22 10° WNW 02:12:44 87° SSW 02:18:05 10° ESE
Meteor 1-18 Rocket 4.5 02:08:06 10° S 02:13:59 82° W 02:19:50 10° N
Resurs 01 Rocket 1.8 02:10:12 10° SSE 02:14:30 57° ENE 02:18:49 10° N
SJ-6B 4.0 02:15:40 10° SSW 02:19:01 37° W 02:22:24 10° NNW
Cosmos 2026 Rocket 4.0 02:13:41 10° S 02:19:52 84° E 02:26:00 10° N
Lacrosse 5 rocket 3.0 02:22:32 10° WNW 02:26:08 28° WSW 02:29:35 10° S
Cosmos 1470 4.2 02:25:03 10° NNE 02:27:44 19° ENE 02:29:33 14° ESE
CZ-4 R/B 2.7 02:25:18 10° SSW 02:28:59 39° W 02:32:45 10° NNW
CZ-4B R/B 3.2 02:24:53 10° S 02:30:09 80° WSW 02:35:29 10° NNW
OPS 6432 4.5 02:27:06 10° NNW 02:30:11 60° ENE 02:32:55 16° SE
KORONAS-FOTON 4.0 02:28:51 10° SSE 02:32:24 48° E 02:36:00 10° NNE
Cosmos 1328 Rocket 4.4 02:28:15 10° SSW 02:32:24 51° W 02:36:36 10° N
Cosmos 1842 3.0 02:34:29 10° S 02:38:05 65° E 02:41:42 10° NNE
IRIDIUM 106 4.4 02:36:59 10° N 02:42:09 60° E 02:46:59 12° SSE
H-2A R/B 2.5 02:45:18 10° SSW 02:45:26 10° SSW 02:45:26 10° SSW
Cosmos 540 Rocket 4.1 02:46:32 10° N 02:51:23 40° ENE 02:54:15 21° SE
Meteosat 1 Rocket2 4.4 02:48:01 10° W 02:53:13 47° S 02:58:24 20° SE
USA 186 4.2 02:54:03 10° SSW 02:56:39 21° W 02:59:15 10° NW
Cosmos 2082 Rocket 4.1 02:52:17 10° SW 02:57:22 33° WNW 03:02:28 10° N
SL-16 R/B 3.6 02:56:04 10° N 03:00:36 24° ENE 03:03:14 18° E
Okean-O 2.5 02:58:43 21° SSE 03:01:36 77° ENE 03:06:01 10° N
MOS 1-B Rocket 4.4 02:55:45 10° S 03:02:08 61° WSW 03:07:51 10° NNW
Cosmos 2333 Rocket 4.4 03:00:59 10° NE 03:02:17 11° NE 03:03:34 10° ENE
Cosmos 1707 2.7 02:59:32 11° SSW 03:03:03 73° W 03:06:39 10° N
Cosmos 1515 Rocket 4.3 03:00:10 10° SSW 03:04:21 51° W 03:08:34 10° N
SeaSat 1 3.8 03:02:21 18° E 03:04:39 26° ENE 03:08:39 10° N
Cosmos 2369 3.7 02:58:57 10° NNW 03:04:43 88° WSW 03:08:35 22° SSE
Atlas Centaur 2 3.0 02:59:35 10° W 03:07:38 74° S 03:14:19 17° E
USA 245 4.2 03:10:21 25° E 03:10:43 26° ENE 03:13:56 10° NNE
CZ-4C R/B 3.9 03:09:43 10° N 03:13:49 62° WNW 03:17:50 10° SSW
SPOT 5 2.5 03:14:17 33° SSE 03:16:11 73° ENE 03:20:30 10° N
IRS-1A Rocket 4.3 03:14:38 28° SE 03:17:25 59° ENE 03:22:49 10° N
SL-08 ROCKET BODY 4.5 03:14:49 23° SSE 03:18:41 59° E 03:24:39 10° NNE
Cosmos 2228 Rocket 3.9 03:18:36 31° ESE 03:19:03 32° E 03:23:05 10° NNE
MetOp-B 4.1 03:16:28 27° SSE 03:19:27 79° ENE 03:24:49 10° N
Okean O Rocket 3.3 03:18:00 10° SSW 03:21:49 29° W 03:25:38 10° NW
Tiangong -1.2 03:19:07 10° NW 03:22:09 41° NNE 03:22:45 36° NE
Cosmos 1356 Rocket 4.1 03:25:55 35° E 03:25:55 35° E 03:29:40 10° NNE
ASTRO E2 3.3 03:23:12 10° WSW 03:25:30 33° SSW 03:25:30 33° SSW
Cosmos 1553 Rocket 4.1 03:22:25 10° N 03:28:37 74° W 03:33:02 20° S
Cosmos 1869 Rocket 3.6 03:24:52 10° N 03:29:17 61° E 03:30:18 47° SE
Cosmos 1400 Rocket 2.6 03:28:43 45° S 03:29:50 85° E 03:33:42 10° N
S3M 4.1 03:25:53 10° N 03:32:09 60° E 03:34:41 36° SE
ERS-1 Rocket 3.0 03:30:43 40° SE 03:32:26 66° ENE 03:37:25 10° N
Cosmos 2266 Rocket 4.0 03:30:54 19° S 03:35:32 89° W 03:41:57 10° N
Cosmos 1655 Rocket 4.1 03:34:27 32° SSE 03:37:25 63° E 03:43:44 10° NNE
ATLAS CENTAUR R/B 1.3 03:36:30 25° SW 03:38:20 60° WNW 03:41:49 10° NNE
Meteor 1-22 Rocket 4.3 03:34:12 10° N 03:39:53 65° E 03:41:50 42° SE
Cosmos 841 Rocket 3.8 03:35:47 10° N 03:40:53 49° ENE 03:41:59 42° ESE
Cosmos 1980 Rocket 3.8 03:37:07 10° NW 03:41:53 28° WSW 03:45:44 14° SSW
Cosmos 1763 Rocket 4.4 03:37:39 10° NNW 03:42:30 41° W 03:45:08 23° SSW
Spot 2 Rocket 3.5 03:42:27 48° SE 03:43:37 62° ENE 03:48:37 10° N
Cosmos 2322 Rocket 3.1 03:38:32 10° N 03:43:40 34° ENE 03:44:58 31° E
Cosmos 1300 4.0 03:41:04 10° NNE 03:43:15 26° NE 03:43:15 26° NE
Cosmos 1441 Rocket 3.4 03:41:30 10° NNW 03:45:03 56° W 03:45:27 52° SW
Cosmos 1908 4.2 03:49:37 10° NNW 03:52:58 37° W 03:53:29 35° WSW
Cosmos 1862 Rocket 3.7 03:55:14 58° ENE 03:55:14 58° ENE 03:59:15 10° NNE
Meteor 1-21 4.2 03:54:03 50° SSE 03:55:31 69° E 04:01:17 10° NNE
Cosmos 2278 3.6 03:49:50 10° NNW 03:55:34 84° WSW 03:57:04 51° S
Meteor 2-10 Rocket 3.5 03:50:10 10° N 03:55:38 66° E 03:56:28 57° SE
Terra 1.7 03:54:54 61° S 03:55:44 83° WSW 04:00:26 10° NNW
Cosmos 883 Rocket 4.4 03:55:11 10° N 04:01:33 77° E 04:03:16 51° SSE
Landsat 5 3.7 04:02:30 10° NNE 04:05:57 62° NE 04:05:57 62° NE
Okean 3 4.0 04:08:31 48° NE 04:08:31 48° NE 04:11:41 10° NNE
Ariane Rocket 2.9 04:07:33 64° S 04:08:18 79° WSW 04:13:25 10° NNW
Cosmos 2219 Rocket 3.8 04:04:51 10° N 04:09:07 22° ENE 04:09:56 21° ENE
Cosmos 2237 4.3 04:05:25 10° NNW 04:11:07 70° WSW 04:12:12 56° SSW
SL-14 R/B 4.1 04:12:43 44° WNW 04:12:43 44° WNW 04:16:15 10° N
Cosmos 1707 Rocket 3.9 04:15:11 59° WSW 04:15:28 60° W 04:19:52 10° N
SJ 16-02 1.6 04:16:45 63° N 04:16:45 63° N 04:20:26 10° NNE
COSMOS 2455 4.5 04:24:43 20° ENE 04:24:43 20° ENE 04:27:04 10° NE
Cosmos 1346 Rocket 3.9 04:23:38 10° N 04:26:15 41° NNW 04:26:15 41° NNW
Cosmos 2315 Rocket 4.1 04:21:47 10° N 04:28:07 70° W 04:29:33 53° SSW
RESURS DK-1 3.4 04:28:16 10° NNW 04:31:10 44° NW 04:31:10 44° NW
SPOT 3 Rocket 4.0 04:32:13 48° WSW 04:32:37 49° W 04:37:37 10° NNW
Cosmos 2360 Rocket 2.1 04:28:19 10° NNW 04:34:00 72° ENE 04:34:00 72° ENE
ATLAS 2AS CENTAUR R/B 2.9 04:29:55 10° NNW 04:36:31 55° ENE 04:37:28 51° E
SeaSat 1 3.6 04:42:03 33° WSW 04:42:03 33° WSW 04:46:19 10° NW
Cosmos 1733 Rocket 4.0 04:39:18 10° NNW 04:42:49 45° WNW 04:42:49 45° WNW
SL-16 R/B 3.0 04:39:32 10° NW 04:44:45 39° WSW 04:45:05 39° WSW
USA 281 3.9 04:45:41 38° E 04:46:37 40° ENE 04:52:39 10° N
Okean 1-7 4.1 04:47:57 43° NNW 04:47:57 43° NNW 04:50:59 10° N
Cosmos 2333 Rocket 2.2 04:41:34 10° NNW 04:47:07 82° NNE 04:47:07 82° NNE
CZ-2C R/B 4.2 04:50:23 36° ENE 04:50:23 36° ENE 04:59:59 10° N
Cosmos 1814 Rocket 4.3 04:51:01 10° NNW 04:55:33 65° N 04:55:33 65° N
Atlas Centaur 2 3.1 04:48:52 10° W 04:56:31 55° SSW 04:56:31 55° SSW
Cosmos 1745 Rocket 4.1 05:08:42 70° NE 05:08:42 70° NE 05:14:32 10° N
Cosmos 839 Rocket 4.0 05:05:56 10° NNW 05:12:09 73° NE 05:12:09 73° NE
Nadezhda 1 Rocket 4.1 05:18:52 10° N 05:24:27 69° NNE 05:24:27 69° NNE
Cosmos 2297 Rocket 3.4 05:29:40 33° NE 05:29:40 33° NE 05:32:54 10° NNE
Cosmos 2322 Rocket 3.7 05:22:49 10° NW 05:26:46 26° W 05:26:46 26° W
CENTAUR R/B 4.4 05:33:37 16° ENE 05:33:37 16° ENE 05:35:11 10° NE
CZ-3 Stage 3 3.6 05:01:17 10° W 05:34:20 72° SSW 05:35:53 63° SSE
COSMOS 2428 3.4 05:46:52 10° NNW 05:51:11 52° N 05:51:11 52° N
Cosmos 2219 Rocket 3.4 05:47:51 10° NW 05:51:37 36° WNW 05:51:37 36° WNW
COSMOS 2455 3.8 06:07:48 40° WNW 06:07:50 40° WNW 06:13:30 10° N
SL-12 R/B(2) 4.3 06:09:01 58° E 06:09:01 58° E 06:17:02 10° NE
NOSS 0 Rocket 4.3 06:04:48 10° NNW 06:10:02 60° NNE 06:10:02 60° NNE
CZ-4C R/B 3.6 06:13:08 28° NNW 06:13:08 28° NNW 06:16:32 10° NNE
ATLAS 2AS CENTAUR R/B 4.4 06:21:57 10° WNW 06:24:53 19° W 06:24:53 19° W
USA 281 4.4 06:32:33 29° W 06:32:33 29° W 06:36:50 10° NW
Cosmos 2098 Rocket 4.4 06:27:05 10° N 06:32:30 60° NNW 06:32:30 60° NNW
Cosmos 2154 Rocket 4.4 06:39:30 56° NE 06:39:30 56° NE 06:44:37 10° NNE
SL-16 R/B 4.0 06:41:10 10° N 06:45:32 22° ENE 06:46:35 21° ENE
Cosmos 2227 Rocket 3.0 06:52:28 46° NNW 06:52:28 46° NNW 06:56:47 10° NNE
Cosmos 2237 Rocket 3.1 06:47:16 10° NNW 06:51:07 45° NNW 06:51:07 45° NNW
H-2A R/B 4.3 06:49:34 10° N 06:51:12 21° NNW 06:51:12 21° NNW
CZ-2D R/B 4.4 07:05:36 10° ENE 07:07:38 13° E 07:07:38 13° E
Cosmos 2297 Rocket 4.1 07:11:26 19° WNW 07:11:45 19° WNW 07:15:38 10° NNW
Cosmos 2219 3.8 07:15:09 52° N 07:15:09 52° N 07:19:29 10° NNE
CENTAUR R/B 3.2 07:20:44 40° NW 07:20:44 40° NW 07:26:42 10° NNE
Cosmos 2341 Rocket 4.2 07:27:49 61° ENE 07:27:49 61° ENE 07:33:35 10° NNE
ADEOS II 4.2 07:31:01 10° ENE 07:34:04 16° E 07:34:19 16° E
Cosmos 1937 Rocket 4.1 07:38:33 54° NNE 07:38:33 54° NNE 07:42:37 10° NNE
Cosmos 1339 Rocket 4.5 07:33:48 10° N 07:40:02 82° NE 07:40:02 82° NE
Cosmos 1898 Rocket 4.2 07:42:11 48° NNW 07:42:11 48° NNW 07:46:05 10° N
Cosmos 2263 Rocket 2.8 07:45:28 49° NW 07:45:28 49° NW 07:50:09 10° N
Resurs 1-4 Rocket 3.2 07:42:49 10° NNE 07:47:22 36° E 07:47:22 36° E
Cosmos 1821 Rocket 4.4 08:00:01 47° ESE 08:00:50 50° E 08:06:42 10° NNE
Cosmos 2218 Rocket 3.8 08:03:34 84° WSW 08:03:42 84° W 08:09:55 10° N
Cosmos 1844 Rocket 3.6 08:04:20 37° ESE 08:04:29 37° ESE 08:09:35 10° NE
Cosmos 2366 rocket 3.9 08:10:21 70° W 08:10:30 71° W 08:16:46 10° N
Cosmos 1437 Rocket 4.4 08:12:41 30° NE 08:12:41 30° NE 08:15:06 10° NNE
NOSS 3-2 (C) 3.4 08:12:44 54° NW 08:12:44 54° NW 08:18:09 10° NNE
ALOS 4.3 08:09:27 10° NE 08:12:40 18° E 08:13:24 18° ESE
Cosmos 1544 Rocket 4.3 08:14:44 10° N 08:18:04 51° N 08:18:04 51° N
Cosmos 1680 Rocket 3.9 08:14:21 10° N 08:19:29 60° ENE 08:20:14 53° ESE
Cosmos 1818 4.3 08:16:20 10° NNW 08:21:39 50° ENE 08:24:48 23° SE
Cosmos 2228 3.6 08:18:28 10° N 08:21:59 54° NNE 08:21:59 54° NNE
USA 267 3.3 08:16:30 10° NE 08:22:58 63° SE 08:24:01 55° S
MSX 3.6 08:19:23 10° N 08:25:08 82° WNW 08:25:33 76° SW
COSMOS 2441 4.4 08:24:26 10° NNE 08:29:13 70° ESE 08:29:13 70° ESE
SL-16 R/B 3.0 08:24:25 10° NW 08:28:24 37° WNW 08:28:24 37° WNW
SL-16 R/B 3.9 08:29:06 10° SE 08:34:43 36° ENE 08:40:19 10° N
H-2A R/B 4.5 08:33:09 10° N 08:35:54 37° NNW 08:35:54 37° NNW
IDEFIX/ARIANE 42P 2.9 08:33:07 10° N 08:38:09 49° WNW 08:38:13 49° WNW
CZ-2C R/B 2.5 08:37:15 62° SSE 08:38:10 83° ENE 08:43:31 10° N
SEDSat Delta rocket 4.3 08:41:06 28° ESE 08:41:06 28° ESE 08:43:11 10° E
Mugunghwa Rocket 4.4 08:42:20 45° SSE 08:42:20 45° SSE 08:48:13 10° ESE
CZ-2C R/B 2.9 08:39:04 10° N 08:44:23 78° WNW 08:44:52 70° SW
Cosmos 1943 3.4 08:38:59 10° NNW 08:44:35 69° ENE 08:47:43 27° SE
CZ-2D R/B 2.2 08:43:11 10° N 08:48:24 58° WNW 08:48:55 55° W
FENGYUN 3A 3.5 08:46:22 10° NNE 08:51:46 87° WNW 08:52:54 58° SSW
ASTEX 1 3.8 08:52:22 34° SE 08:54:17 58° E 08:59:03 10° N
Cosmos 1606 Rocket 4.3 08:50:23 10° N 08:54:42 50° E 08:56:15 34° SE
Cosmos 921 Rocket 4.3 08:51:21 10° N 08:55:15 36° ENE 08:57:56 17° SE
Cosmos 1125 Rocket 4.0 08:57:57 37° SSE 08:59:42 55° ESE 09:04:51 10° NNE
Cosmos 1867 4.1 09:01:14 40° W 09:02:22 46° WNW 09:07:38 10° NNE
Cosmos 2239 Rocket 4.4 09:00:57 46° SSW 09:02:50 71° W 09:08:58 10° N
CZ-2C R/B 4.5 09:02:48 10° NE 09:06:04 19° E 09:09:20 10° SE
Cosmos 1727 Rocket 4.0 09:01:38 10° NNW 09:07:53 65° W 09:10:22 38° SSW
Cosmos 1726 Rocket 4.1 09:05:51 10° N 09:10:12 56° E 09:12:35 25° SSE
Cosmos 494 Rocket 4.3 09:06:58 10° N 09:12:12 68° ENE 09:17:16 11° SSE
Cosmos 1812 4.3 09:10:02 10° NNE 09:13:13 30° E 09:15:37 15° SE
Cosmos 2058 3.6 09:12:19 31° SSE 09:13:48 47° E 09:17:43 10° NNE
ADEOS II 2.4 09:08:51 10° N 09:13:53 50° WNW 09:15:11 41° WSW
Cosmos 1844 4.0 09:15:24 39° WSW 09:17:13 54° WNW 09:22:54 10° N
IRAS Rocket 4.2 09:12:43 10° NNE 09:18:13 79° ESE 09:20:58 31° S
USA 238 DEB 4.3 09:16:15 27° W 09:18:45 38° NW 09:24:46 10° NNE
USA 238 4.3 09:16:17 27° W 09:18:47 38° NW 09:24:51 10° NNE
GOES 2 Rocket 4.5 09:21:11 22° SSE 09:21:11 22° SSE 09:23:25 10° SE
Cosmos 1000 Rocket 4.4 09:15:44 10° N 09:21:59 73° W 09:25:45 25° S
SAR-Lupe-4 3.4 09:18:34 10° NNE 09:22:08 87° WNW 09:22:35 66° SSW
USA 81 4.5 09:19:42 10° N 09:24:55 61° E 09:29:48 12° SSE
ATLAS 5 CENTAUR R/B 2.2 09:25:49 26° SE 09:26:34 29° ESE 09:29:30 10° NE
Resurs 1-4 Rocket 3.5 09:23:09 10° NNW 09:27:11 23° WNW 09:28:26 21° W
Timation 2 Rocket 4.0 09:23:52 30° SSW 09:27:28 88° WNW 09:33:58 10° NNE
Iridium 4 Rocket 4.0 09:25:08 10° N 09:29:36 53° E 09:34:28 10° SSE
UNK 4.1 09:25:29 10° SSE 09:29:58 66° ENE 09:34:32 10° N
Meteor 1-28 Rocket 3.3 09:35:43 44° WSW 09:35:50 44° W 09:39:14 10° NNW
Delta 142 4.4 09:40:12 29° WSW 09:42:22 45° S 09:48:24 10° ESE
Cosmos 1544 2.1 09:42:30 63° SSE 09:42:49 79° E 09:45:25 10° N
NOSS 2-3 (D) 4.2 09:42:01 21° S 09:43:58 38° ESE 09:47:25 10° NE
Cosmos 1892 Rocket 4.2 09:42:43 31° WSW 09:43:59 39° W 09:48:07 10° N
Cosmos 1535 Rocket 4.4 09:39:57 20° SSW 09:44:28 77° W 09:50:39 10° N
Delta 2 Rocket 3.4 09:43:07 16° WNW 09:46:18 79° NNE 09:50:42 10° E
NOAA 11 4.2 09:41:42 10° NNE 09:47:12 82° ESE 09:51:42 15° S
Cosmos 1844 Rocket 4.0 09:45:59 18° W 09:48:24 24° WNW 09:52:52 10° N
Cosmos 2058 Rocket 3.1 09:44:03 10° N 09:48:29 80° E 09:52:50 10° S
ALOS 3.1 09:45:44 10° N 09:49:52 33° WNW 09:51:42 24° WSW
Cosmos 2298 Rocket 4.0 09:49:11 21° SSW 09:52:51 85° WNW 09:58:12 10° NNE
METEOR-M 4.1 09:49:05 10° N 09:54:25 77° WNW 09:58:36 17° SSW
BREEZE-M DEB (TANK) 3.5 09:54:25 26° WSW 09:56:16 68° NNW 10:05:30 10° NE
Cosmos 1607 4.0 09:54:55 10° NNW 10:01:19 89° ENE 10:07:31 10° SSE
NOSS 2-2 (C) 3.0 10:00:13 26° SW 10:01:55 57° WNW 10:05:00 10° NNE
Cosmos 1605 Rocket 4.0 09:57:05 15° SSW 10:02:22 66° W 10:08:29 10° N
USA 267 4.3 09:59:55 10° NNE 10:05:39 34° NW 10:11:21 10° W
Cosmos 2278 Rocket 3.6 10:05:33 10° SSE 10:10:37 35° ESE 10:15:42 10° NE
NOSS 2-2 (D) 2.8 10:08:13 20° SSW 10:10:40 83° WNW 10:13:51 10° NNE
Cosmos 1626 Rocket 3.6 10:06:55 14° SSW 10:10:44 68° W 10:15:09 10° N
CZ-4 R/B 4.1 10:06:19 10° N 10:11:07 55° WNW 10:15:17 14° SSW
NOSS 2-3 (E) 3.0 10:08:40 20° SW 10:11:09 79° WNW 10:14:51 10° NNE
H-2A R/B 3.3 10:09:57 10° NNE 10:14:54 40° E 10:19:41 10° SSE
NOSS 2-3 (C) 3.1 10:13:55 18° SW 10:16:30 67° WNW 10:20:11 10° NNE
SL-16 R/B 3.3 10:13:12 11° SSW 10:18:13 30° W 10:23:36 10° NW
Cosmos 1862 3.8 10:14:40 10° S 10:18:24 55° E 10:22:07 10° NNE
IRS-1D 3.5 10:16:20 10° N 10:21:29 79° WNW 10:26:30 10° SSW
Cosmos 1271 Rocket 2.7 10:18:16 10° S 10:21:49 71° E 10:25:23 10° NNE
SEDSat Delta rocket 2.7 10:20:59 11° W 10:24:52 69° S 10:28:59 10° E
Cosmos 1484 Rocket 4.1 10:26:59 10° NNE 10:30:33 38° E 10:34:04 10° SSE
Envisat 4.1 10:29:54 10° NNW 10:34:10 28° WNW 10:38:26 10° SW
Mugunghwa Rocket 4.3 10:31:14 10° WSW 10:37:27 47° S 10:43:26 10° ESE
Okean 1-7 Rocket 3.8 10:35:10 10° SSW 10:39:34 54° W 10:43:57 10° N
CZ-2C R/B 3.2 10:40:11 10° N 10:44:11 31° WNW 10:48:14 10° SW
Meteor 2-14 Rocket 4.5 10:38:12 10° N 10:44:17 88° W 10:50:20 10° S
NOSS 3-1 (C) 4.3 10:42:57 10° S 10:47:07 35° ESE 10:51:44 10° NE
Cosmos 1238 Rocket 4.1 10:45:57 10° NW 10:47:46 14° W 10:49:30 10° WSW
Lacrosse 5 2.6 10:43:08 10° SSW 10:48:00 50° ESE 10:52:52 10° NE
Cosmos-2242 3.3 10:44:27 10° NNW 10:48:35 47° W 10:52:40 10° SSW
Cosmos 1802 Rocket 4.5 10:42:55 10° S 10:49:16 71° E 10:55:40 10° N
